Theta_e
332 328 327 327 329 322 315 314 298 306 302 294 295 298 295 306 308 306 304 306 303 310 329 331 328 325 322 320 322 327 329 320 321 311 306 332 346 345 346 347 347 347 347 348 349 350 350 353 353 353 353 352 352 352 351 351 350 350 350 349 349 349 349 348 349 349 349 348 348 347 347 347 346 346 346 345 345 346 347 346 347 346 348 347 347 349 348 347 347 347 347 348 347 347 347 347 346
329 327 326 327 321 314 306 312 302 302 300 295 296 300 300 304 307 304 304 305 306 322 330 331 331 332 332 330 330 329 328 332 333 332 337 343 345 344 346 347 347 345 346 347 349 349 349 351 353 353 352 352 352 351 350 350 350 349 350 350 349 349 349 349 349 348 348 348 348 348 347 347 346 346 346 345 346 346 346 347 347 346 347 348 348 349 348 348 347 348 347 347 347 347 346 346 346
329 327 323 324 318 312 308 310 298 296 294 289 293 298 304 303 302 302 306 308 327 330 331 331 330 330 329 329 323 327 320 338 338 339 336 343 337 339 346 347 347 346 346 347 348 348 349 351 353 352 352 352 351 351 350 350 349 349 349 349 349 349 348 349 348 348 348 347 347 347 347 346 346 346 346 346 346 346 346 346 347 347 348 346 348 348 347 346 348 347 347 347 347 346 346 346 345
327 326 321 321 307 312 303 303 299 296 295 293 292 298 302 302 304 306 307 306 328 329 329 328 326 333 329 324 326 334 332 333 339 337 335 338 339 342 345 346 348 347 347 347 348 348 348 351 352 352 352 351 351 350 350 350 350 349 349 348 349 348 348 348 348 348 347 347 347 347 347 346 347 346 346 346 345 346 347 348 349 349 347 347 348 348 347 346 346 347 347 347 347 347 346 346 345
325 327 324 319 311 303 303 300 298 298 294 297 293 298 302 302 303 305 308 309 316 325 330 330 328 331 334 330 332 326 330 338 339 343 339 341 344 344 345 346 346 346 346 347 347 347 348 352 352 351 351 351 351 350 350 350 349 349 349 348 348 348 348 348 348 348 348 347 347 347 346 347 347 347 346 346 345 345 346 347 347 347 346 347 348 348 348 347 347 347 347 347 347 347 346 346 345
317 320 322 319 310 312 308 296 298 298 301 301 299 299 301 304 304 306 307 309 310 316 328 329 325 326 326 330 334 330 337 330 339 340 341 339 344 346 346 346 345 345 346 347 347 347 348 352 352 351 351 351 351 350 350 349 349 349 348 348 348 348 348 348 348 348 348 347 347 347 347 347 347 347 346 345 345 346 346 346 345 346 347 346 346 348 347 347 347 347 347 347 346 346 345 344 344
311 310 313 314 313 314 299 296 295 298 301 305 303 303 304 306 305 305 306 307 325 328 333 329 331 328 325 331 335 340 343 344 340 340 343 343 345 345 346 345 344 344 345 346 346 347 348 352 351 351 350 350 351 350 349 349 349 348 348 348 348 348 348 348 348 348 348 348 348 347 347 347 346 347 347 346 345 345 346 346 346 346 347 346 346 347 347 347 347 348 347 346 346 346 345 344 345
319 307 309 305 303 306 299 299 297 298 300 306 307 306 307 308 309 307 305 304 311 319 329 330 330 326 324 337 325 338 342 343 344 346 345 344 344 344 345 344 343 343 344 345 346 347 352 351 351 351 350 350 350 349 349 349 348 348 348 348 348 348 348 348 348 348 348 348 348 348 347 347 347 347 347 347 346 346 346 347 347 346 347 346 347 347 348 348 347 347 347 345 345 344 344 344 344
311 309 310 303 299 302 297 298 299 304 302 303 304 308 315 310 309 307 305 307 312 321 327 329 331 322 325 330 329 336 339 344 345 345 344 344 343 344 344 343 342 342 344 345 346 348 348 351 350 350 350 350 350 349 349 348 348 348 348 348 348 348 348 348 348 348 349 349 349 348 347 347 347 346 347 346 346 346 346 347 347 347 347 347 347 347 347 347 347 347 346 345 344 344 344 344 343
308 307 300 299 299 295 296 298 297 301 302 305 304 305 305 306 305 305 306 309 306 324 329 332 333 325 329 326 329 335 337 343 344 343 344 344 344 344 343 343 343 343 343 345 346 346 347 351 350 350 350 349 349 348 348 348 348 348 348 347 348 348 348 348 349 349 349 349 349 348 347 346 346 346 346 346 346 346 346 346 346 347 346 347 347 346 347 347 346 346 346 346 345 345 344 343 343
302 307 308 296 293 291 293 295 298 301 302 304 305 308 308 309 307 305 321 320 328 326 329 332 327 328 329 328 331 341 343 343 342 339 343 344 344 343 342 343 344 344 343 344 345 346 347 347 350 350 349 349 349 348 348 348 348 347 347 347 347 347 348 348 348 348 349 349 349 348 347 346 346 346 346 346 346 346 346 346 346 345 346 347 347 347 347 346 346 346 346 346 345 345 343 342 342
298 300 301 293 291 292 293 293 297 299 301 301 301 304 307 307 306 304 306 320 324 326 326 331 325 332 327 328 328 337 341 341 342 343 344 344 343 343 343 343 344 344 344 344 345 345 346 347 347 349 349 349 348 348 348 347 347 347 347 347 347 347 347 347 347 347 347 348 349 349 348 347 346 346 346 346 346 346 346 346 346 346 346 346 346 346 346 346 346 346 346 346 345 344 343 343 342
300 301 298 294 291 293 295 295 296 301 300 300 300 304 306 304 302 303 307 323 326 324 325 331 333 332 323 326 334 337 336 340 344 344 344 343 343 343 343 343 344 343 344 344 343 344 344 344 345 346 347 348 348 348 347 347 346 346 347 346 346 346 346 346 347 347 347 348 348 349 349 348 347 347 347 346 346 346 346 346 346 346 346 346 346 346 346 346 346 346 346 345 345 344 344 343 343
300 300 298 292 295 294 294 294 296 295 297 301 304 306 304 302 303 304 307 318 322 319 327 335 333 332 327 330 330 331 336 341 344 345 345 343 343 342 342 342 342 342 343 343 342 343 343 343 344 344 345 344 344 346 347 347 346 347 346 346 346 345 345 345 345 345 346 346 347 349 350 349 348 347 347 347 347 346 346 346 346 346 346 346 346 346 345 345 345 345 344 344 343 343 344 343 343
300 302 298 295 293 293 295 293 294 295 296 301 305 312 312 308 321 313 317 318 319 330 333 334 334 331 322 326 325 331 337 341 343 344 343 342 342 341 341 341 341 341 342 342 342 341 341 342 342 343 343 342 342 341 341 344 347 346 346 345 345 345 345 345 345 345 346 346 347 347 348 349 349 348 348 347 346 347 346 346 346 346 346 346 345 345 344 344 343 343 343 342 342 342 343 345 344
303 300 297 293 290 291 293 295 297 296 296 302 309 315 315 319 320 319 322 322 324 333 333 326 335 326 331 330 331 336 340 342 343 343 342 340 340 340 340 339 339 340 340 340 340 340 341 340 340 341 341 341 340 339 340 340 344 345 345 345 344 344 344 344 344 344 344 343 344 346 346 346 347 346 348 346 347 347 346 345 346 346 346 346 345 344 344 343 341 342 341 341 340 342 343 343 345
306 302 293 292 289 291 294 295 296 291 298 306 309 314 310 314 318 322 324 331 326 325 329 331 328 335 332 333 337 339 341 342 342 341 340 338 338 337 337 337 338 338 339 339 339 339 340 339 339 339 340 339 339 338 337 338 341 345 344 345 344 344 344 343 344 343 342 343 344 342 345 338 337 339 343 341 346 344 346 346 346 346 345 346 345 344 343 343 342 342 341 341 341 342 342 343 343
304 296 293 290 291 292 296 297 298 303 304 306 307 314 312 310 313 316 321 327 327 328 328 330 333 334 336 338 339 340 341 340 340 338 336 336 336 334 334 335 336 335 337 337 339 339 339 338 338 339 338 338 337 338 338 339 341 343 337 338 338 343 344 344 342 339 345 336 343 340 333 338 334 336 338 347 340 343 343 346 346 346 345 345 345 344 343 343 343 342 342 341 342 341 340 330 340
299 296 293 289 293 296 301 305 306 305 306 310 313 316 312 312 313 316 312 313 319 325 326 329 329 332 335 337 338 338 339 338 338 337 335 334 334 332 332 333 334 335 335 337 338 338 338 338 339 338 337 337 337 337 337 338 338 336 336 335 338 342 343 342 336 340 332 334 335 332 335 333 330 333 337 343 343 346 344 346 346 346 346 345 345 344 343 343 342 342 342 342 341 342 332 330 331
300 297 292 292 298 300 304 306 309 310 312 313 312 314 316 314 313 317 311 313 314 321 322 326 327 327 331 334 336 337 338 337 337 336 335 335 334 333 332 332 333 334 335 336 337 338 338 338 338 338 336 336 335 335 336 335 334 334 334 334 335 334 334 335 332 332 330 331 333 331 331 333 332 329 345 346 347 342 342 346 346 346 346 345 345 344 344 343 342 343 341 343 343 337 330 328 328
303 297 294 295 301 299 302 310 311 309 313 315 311 312 315 316 315 314 313 311 313 317 325 327 326 329 331 333 334 336 335 335 335 335 335 334 334 335 333 333 333 334 336 337 337 337 337 338 338 335 335 334 334 334 334 332 333 333 332 332 332 332 331 330 329 330 328 327 328 329 327 332 329 329 333 334 332 334 334 335 337 336 336 335 345 331 332 336 334 332 333 336 331 333 330 328 328
304 298 300 301 303 300 307 309 312 311 314 314 313 313 313 320 315 313 316 311 309 314 318 327 331 332 331 331 333 335 334 333 334 334 334 334 333 333 334 334 336 337 337 336 336 337 337 338 337 333 333 332 333 333 333 335 333 331 329 330 330 328 330 330 329 326 328 325 325 326 329 326 324 325 327 327 326 328 333 333 334 333 332 332 337 332 331 330 331 331 330 332 332 332 332 331 330
296 298 301 304 305 304 308 310 311 312 311 310 310 315 318 313 312 315 315 314 315 320 321 324 333 334 334 334 333 332 332 332 333 333 333 333 334 334 334 335 335 335 336 336 337 337 337 338 336 332 331 331 332 333 332 334 330 330 330 329 329 330 330 329 326 324 323 323 325 328 322 322 323 322 321 322 324 328 331 332 332 333 334 330 331 330 329 331 330 330 330 329 330 331 332 332 328
298 295 301 303 307 306 309 310 312 310 310 309 312 315 313 312 307 314 314 317 321 323 324 324 332 334 335 332 332 332 331 332 332 333 333 334 335 334 335 334 336 336 336 336 336 337 337 337 335 331 330 331 331 331 331 332 330 330 331 337 333 337 330 325 323 322 324 322 324 326 323 317 317 316 319 317 317 322 330 332 333 332 332 331 331 328 328 329 330 330 330 331 332 331 330 327 325
300 297 304 305 307 310 308 308 309 311 311 314 313 308 312 313 311 316 314 318 322 324 324 324 326 328 332 331 331 331 331 332 333 333 334 334 335 336 336 336 336 336 335 335 336 336 337 338 335 332 332 331 330 330 331 332 331 331 333 333 331 342 324 323 323 323 321 323 321 323 322 316 315 316 317 318 318 319 324 330 331 332 333 332 331 329 328 328 329 329 330 329 328 328 327 324 324
303 303 305 306 307 310 308 310 309 310 311 313 310 307 312 314 315 312 317 320 322 324 322 322 325 324 326 325 325 326 328 328 331 332 332 334 335 334 334 335 335 334 335 336 336 336 337 338 336 333 333 331 331 331 331 332 331 330 332 332 331 336 322 324 324 318 317 317 317 320 321 316 315 314 315 317 318 318 321 325 330 331 331 331 332 330 329 329 329 329 329 328 328 327 326 324 324
305 306 306 304 306 307 310 308 309 310 310 312 307 306 311 316 313 302 318 321 324 322 321 321 321 321 322 322 322 325 326 326 328 332 332 333 334 333 334 334 334 334 335 335 336 336 338 337 336 336 334 335 332 331 331 331 331 330 332 331 331 324 324 326 321 318 316 316 318 319 321 322 315 315 315 316 318 318 319 324 327 330 330 331 331 331 329 330 330 329 328 327 326 325 326 324 322
307 306 306 306 306 306 308 310 308 309 309 312 309 306 313 312 311 306 317 322 323 320 321 320 319 320 320 321 323 324 326 328 330 331 330 331 331 333 333 333 333 334 335 334 336 337 337 336 336 336 335 334 333 332 333 331 330 330 330 327 325 323 325 320 318 318 324 318 319 317 316 318 321 316 316 318 320 318 319 320 323 327 330 330 331 330 329 331 331 329 330 328 327 327 325 324 324
306 305 298 302 304 303 306 306 309 311 309 311 310 307 306 309 307 313 318 321 321 320 318 319 318 318 320 322 322 323 325 327 329 329 331 332 332 334 333 334 334 334 335 336 336 337 335 335 335 335 334 334 332 332 331 331 330 328 325 324 325 327 322 319 318 319 319 319 316 314 316 321 320 315 316 322 325 317 319 321 322 327 329 330 330 330 330 329 329 328 327 329 327 326 326 323 326
309 306 300 299 298 297 305 308 309 310 310 311 310 293 296 306 313 315 315 315 318 316 316 318 319 319 320 321 321 323 325 326 327 327 332 332 332 332 333 334 335 335 334 335 336 335 336 336 337 336 334 333 333 332 331 329 327 325 325 324 328 324 321 320 322 320 323 319 318 317 317 321 316 317 319 321 319 318 318 318 319 321 324 327 328 329 328 327 326 326 326 326 332 326 325 322 320
297 303 301 293 291 291 305 308 310 308 312 310 311 293 296 304 313 316 315 317 315 314 315 317 319 320 322 323 322 323 325 326 326 329 331 331 332 333 334 334 335 335 335 334 335 335 336 335 337 336 335 333 334 332 331 328 327 326 325 324 323 320 320 320 319 321 318 318 318 316 319 323 318 321 322 320 318 317 317 316 317 318 321 327 328 328 327 326 325 325 325 324 323 324 324 324 320
300 295 289 294 291 292 302 310 309 304 309 312 305 293 296 303 311 316 315 312 313 314 316 318 319 319 320 322 323 323 324 326 326 328 329 330 330 332 333 333 334 334 334 334 335 335 334 335 337 334 333 332 330 332 330 328 327 326 325 330 325 322 319 320 320 319 318 317 316 315 319 323 317 320 320 318 317 316 316 316 316 318 320 323 327 326 326 325 323 324 326 323 322 324 324 320 321
296 293 290 290 292 292 298 305 309 311 309 309 307 294 299 303 309 317 316 313 312 313 314 316 317 318 320 321 322 323 323 324 325 326 330 332 331 331 332 333 333 334 334 334 334 334 334 335 337 334 332 331 330 331 328 327 327 325 327 325 325 322 319 318 318 318 317 316 315 316 319 323 315 317 320 319 316 317 316 316 317 318 322 323 325 324 324 325 323 325 324 325 324 323 321 322 321
287 293 289 291 291 293 291 300 306 308 308 302 306 300 301 304 312 316 316 313 313 315 315 315 316 317 319 321 322 322 323 323 323 326 329 331 332 332 331 335 333 333 334 334 334 334 334 334 334 333 331 331 330 329 328 327 327 327 324 324 328 319 318 318 318 317 316 315 315 315 319 323 319 316 318 318 316 321 316 317 317 319 321 322 322 322 323 324 324 324 321 323 325 324 320 320 321
286 288 289 290 293 295 293 294 300 308 308 303 303 301 302 306 312 316 317 316 315 315 316 318 318 317 319 320 321 322 323 323 324 327 331 331 332 330 331 333 332 333 333 332 333 334 333 333 334 334 332 331 329 329 328 328 328 325 323 321 320 320 319 318 319 316 316 315 314 315 318 320 320 316 318 320 316 317 315 316 315 317 320 320 320 320 319 322 325 322 321 322 327 324 321 321 320
295 295 291 292 291 291 294 299 307 308 303 301 301 299 302 306 308 312 316 318 315 316 319 319 319 319 319 320 322 321 323 325 327 329 331 332 333 331 332 332 332 332 332 332 333 333 333 333 334 333 332 330 329 328 328 327 325 323 320 319 318 320 318 321 319 317 316 314 317 318 317 317 318 316 315 317 315 316 314 314 315 317 319 319 318 319 319 318 321 322 321 324 323 325 324 324 322
300 299 296 293 294 295 302 304 308 310 304 301 301 302 304 305 307 311 312 316 316 317 317 316 317 318 318 319 321 322 323 323 328 330 331 331 332 333 332 332 332 331 331 332 332 332 333 333 333 331 331 330 328 327 326 325 322 319 318 317 315 315 318 318 319 317 316 315 317 315 316 317 316 318 318 316 315 319 320 315 315 315 317 321 320 320 321 322 320 321 323 324 321 320 321 322 323
301 298 297 296 296 295 303 304 308 311 303 299 302 303 304 305 307 310 312 313 314 315 316 315 316 317 318 318 319 321 324 328 329 326 329 330 330 332 332 331 332 329 330 332 332 332 333 334 332 331 331 329 327 327 327 325 322 320 317 317 315 316 321 316 315 315 315 317 316 315 316 315 315 316 320 316 317 315 314 314 314 314 316 316 319 322 321 328 323 322 321 320 321 319 318 322 323
301 297 295 295 296 300 304 307 310 310 303 297 302 300 302 307 310 311 311 312 314 316 316 317 318 316 317 319 319 322 323 323 325 327 328 329 330 330 330 329 329 330 331 332 333 333 333 333 332 332 330 328 327 328 326 325 324 323 320 319 317 317 317 318 316 318 318 316 316 316 316 316 315 314 317 319 317 316 314 312 313 313 316 319 317 315 316 320 318 321 320 319 319 319 319 323 322
298 295 294 291 297 295 291 301 309 309 303 299 302 301 302 307 310 310 313 314 316 316 318 318 319 319 318 319 320 321 321 321 322 325 326 327 329 327 329 329 329 331 332 332 332 332 333 333 331 331 330 329 328 329 329 326 326 324 323 321 318 318 317 323 319 318 316 315 314 316 315 315 314 313 314 316 314 315 314 314 313 315 317 320 316 315 316 318 319 320 320 320 319 317 317 318 321
298 298 294 294 297 299 297 298 306 308 307 308 304 299 299 303 303 306 312 317 315 316 317 317 319 320 323 323 323 322 321 321 322 324 326 326 325 325 327 329 330 330 330 331 332 333 333 332 332 331 330 329 328 331 329 327 326 321 322 322 321 318 319 316 315 315 315 316 315 314 313 313 313 313 313 313 317 312 313 314 315 316 318 318 318 316 316 317 317 319 320 319 317 316 314 314 318
295 302 301 300 302 300 302 303 301 296 295 304 302 290 291 300 303 305 310 312 313 316 314 314 317 318 321 319 320 323 323 324 323 323 324 325 326 326 328 329 329 329 329 331 332 332 332 332 332 331 330 329 328 329 328 327 324 321 318 316 315 314 313 313 311 312 313 315 314 313 314 316 314 313 313 313 313 316 312 314 315 318 318 318 319 316 316 318 318 318 320 319 319 316 316 314 315
293 297 307 305 303 302 300 300 297 289 289 298 306 291 287 299 301 304 309 310 310 313 313 315 316 317 318 318 319 320 322 322 324 325 326 325 326 326 327 327 328 328 329 331 331 332 333 333 332 331 330 329 329 329 328 327 321 320 318 317 315 314 313 313 312 313 313 315 316 314 314 314 313 311 312 313 314 317 314 314 314 316 317 316 321 316 316 316 318 320 319 317 318 320 316 314 315
291 305 306 306 304 301 300 299 298 295 304 304 305 299 291 291 299 308 309 307 309 310 313 314 314 315 317 319 319 319 322 322 323 324 325 325 326 326 324 326 326 328 329 331 331 332 331 332 331 330 330 330 330 329 327 325 321 319 318 317 317 315 314 314 316 316 316 319 315 314 313 314 313 312 310 312 315 318 316 315 315 315 316 316 320 318 315 315 317 319 319 317 317 318 318 316 314
297 307 308 306 305 303 302 299 297 299 296 290 299 301 292 290 298 308 309 304 306 307 309 311 314 315 317 318 319 320 322 323 323 322 322 324 325 325 326 325 327 330 330 329 331 330 332 332 332 331 330 329 329 329 327 324 324 321 320 319 318 317 316 317 318 320 318 317 314 314 315 314 312 312 311 310 312 314 319 314 312 313 314 314 319 319 316 317 316 315 315 316 316 317 318 318 314
307 310 310 308 308 306 303 299 298 297 292 288 296 301 290 287 296 300 305 303 302 305 309 311 313 315 316 317 318 320 322 322 323 324 325 325 325 326 326 327 329 330 330 330 330 330 330 331 331 330 329 329 328 328 327 324 324 323 320 319 318 317 319 318 316 315 315 315 315 315 315 313 311 311 311 311 310 312 315 315 314 312 312 313 319 316 315 315 315 314 315 316 315 317 316 318 316
313 310 306 305 304 302 302 300 297 292 284 287 298 301 294 284 293 299 298 300 304 307 308 311 313 315 317 318 318 320 320 322 323 325 326 326 326 326 326 327 329 328 329 329 329 330 330 330 331 329 329 329 328 328 326 324 324 323 322 320 319 317 317 318 314 314 313 313 315 315 314 312 311 311 311 312 311 310 311 315 313 311 311 317 318 315 314 314 314 314 315 315 317 316 316 316 317
310 304 301 301 298 301 298 296 297 288 285 292 300 300 299 285 291 300 305 310 310 309 308 311 312 315 317 318 319 320 320 321 322 324 324 324 324 325 326 326 328 328 327 328 329 330 330 330 330 329 329 328 327 327 325 324 324 323 324 321 320 319 318 318 315 314 315 314 314 315 314 313 313 313 312 310 309 310 311 312 314 313 313 313 313 312 311 313 313 315 314 314 315 315 315 316 313
305 302 299 291 288 290 286 291 286 285 285 296 301 301 293 293 299 304 308 309 312 313 312 312 313 314 315 317 320 321 321 321 322 323 323 322 323 324 324 325 326 327 327 329 329 330 330 330 329 328 329 328 328 326 325 324 323 323 324 322 321 321 318 318 317 314 316 315 314 315 314 313 313 313 313 311 309 309 311 311 309 308 308 312 313 313 313 313 311 310 313 315 313 314 315 315 312
301 298 294 288 284 284 282 284 286 289 295 301 300 302 292 300 304 308 308 311 314 315 315 316 315 315 315 317 321 321 321 322 323 323 323 322 323 324 325 325 325 325 326 328 329 329 329 329 328 328 328 329 328 326 325 324 323 323 324 323 322 322 318 317 316 316 318 316 315 314 315 315 315 315 315 312 312 312 312 313 312 310 309 310 313 311 311 313 312 311 312 311 312 312 312 312 313
300 306 300 293 290 286 282 284 283 285 288 297 302 294 291 291 297 309 312 315 316 317 318 317 318 318 319 320 321 322 321 322 324 323 323 323 324 325 325 325 325 324 325 327 328 329 329 328 328 328 327 328 328 327 326 325 324 323 324 324 323 322 321 319 317 316 317 317 315 315 316 316 315 316 317 316 315 313 313 312 312 311 310 310 312 312 314 310 310 311 311 311 309 310 312 314 312
306 308 304 296 294 294 287 290 287 288 288 288 293 291 300 299 309 312 314 316 316 317 317 318 317 319 320 320 320 321 322 323 324 324 324 324 324 325 326 325 325 325 326 327 328 329 328 328 329 329 328 329 329 328 326 326 325 324 324 324 324 324 325 322 320 320 317 317 317 317 317 317 317 317 318 318 317 316 315 313 313 313 311 311 311 312 310 310 309 309 308 308 307 315 308 308 309
300 302 294 298 304 300 289 292 294 292 288 288 293 296 301 308 309 311 313 314 314 315 315 316 316 316 317 317 318 321 323 323 323 324 323 324 325 325 327 327 327 327 327 327 328 328 329 329 329 329 328 328 328 329 327 327 325 325 325 325 324 324 324 323 320 319 319 318 318 318 317 318 319 319 319 319 318 318 317 315 313 312 312 312 311 313 312 310 309 309 309 306 306 307 308 307 307
300 293 300 307 309 303 290 286 285 286 286 288 296 293 294 295 289 310 309 309 311 312 312 314 315 317 316 317 318 321 322 323 324 324 325 326 327 326 327 327 328 328 329 329 329 328 329 329 329 328 327 327 327 328 328 327 326 324 325 326 326 325 325 324 322 320 319 320 318 318 319 318 318 320 320 321 319 319 318 321 314 312 312 312 311 312 312 311 310 308 308 307 307 306 306 306 306
304 302 311 300 288 288 292 284 283 282 284 287 293 296 295 297 296 304 305 307 309 311 313 313 314 315 316 317 319 321 322 322 322 323 323 323 324 325 326 326 328 329 330 330 329 328 329 329 329 327 327 326 327 327 326 327 328 328 329 327 326 326 326 326 324 321 320 319 320 318 319 320 320 320 321 320 319 317 317 317 314 312 312 312 312 311 311 311 310 309 309 308 307 305 305 304 305
313 315 308 308 300 292 291 290 291 290 285 286 290 294 289 301 301 305 305 308 310 309 311 312 314 316 317 318 319 320 320 320 321 322 322 322 324 325 325 325 326 327 328 329 329 329 328 328 329 328 328 327 327 327 327 326 327 328 330 329 328 328 328 328 327 325 322 320 320 321 319 318 320 322 321 321 319 318 319 316 314 313 313 312 312 312 311 311 310 310 310 310 309 307 307 307 307
302 303 300 300 301 306 301 298 293 286 284 284 286 286 293 301 307 307 307 310 312 312 312 314 315 316 317 318 319 319 320 319 320 320 322 324 324 325 326 327 328 328 328 327 327 326 327 327 328 329 326 325 325 325 326 326 326 327 329 328 327 328 328 329 329 328 326 325 325 325 324 322 320 320 321 319 319 319 319 320 317 315 314 313 312 312 311 311 310 310 309 310 309 309 308 308 308
301 299 296 298 295 294 289 287 299 296 289 285 285 287 296 304 311 310 310 312 313 314 314 315 316 316 317 318 319 319 319 319 320 321 321 323 324 325 327 328 328 328 327 326 328 327 328 328 327 327 327 326 325 327 327 327 327 327 327 327 326 328 328 329 328 328 327 327 325 326 326 325 322 320 321 321 320 320 320 320 320 319 317 315 314 313 313 312 311 311 310 311 310 308 308 308 308
Wind_Speed
5 4 4 3 0 1 0 1 3 3 1 9 6 7 5 6 6 4 2 1 6 1 2 7 8 3 3 6 14 9 6 10 1 11 7 4 12 14 16 16 15 13 13 11 11 12 13 17 19 19 19 19 18 18 17 17 17 17 16 16 16 16 15 14 14 14 14 14 14 14 14 14 13 12 12 11 12 11 11 12 13 13 13 14 15 14 15 15 14 14 14 14 15 15 15 14 14
3 3 3 2 1 1 2 2 1 3 0 7 15 3 9 3 6 9 8 3 2 1 4 8 10 14 16 18 10 9 8 7 3 3 5 9 14 13 18 18 16 16 12 11 10 11 11 14 19 19 19 19 18 18 17 17 16 16 16 16 16 15 15 15 14 14 14 14 14 14 14 13 13 12 12 12 11 11 12 12 13 13 14 15 14 15 14 14 14 14 13 14 15 15 14 14 14
3 3 4 4 1 1 1 0 3 3 7 11 14 9 4 10 6 3 10 1 3 5 7 8 5 7 2 3 6 4 3 4 11 8 7 12 16 12 18 18 16 15 13 10 10 10 10 13 19 19 19 19 18 18 18 17 17 17 16 16 16 16 15 15 14 14 14 14 14 14 14 13 13 12 12 12 12 12 13 13 14 12 13 14 14 14 14 14 14 13 13 14 15 14 14 14 15
2 2 3 1 0 0 0 0 2 6 9 13 9 3 6 4 6 6 7 3 8 5 2 4 6 7 0 9 4 10 7 7 1 14 9 12 6 13 16 16 15 12 11 10 10 10 9 15 20 19 19 19 19 18 18 18 17 16 16 16 16 16 15 15 14 14 14 14 14 14 14 14 13 13 12 11 12 13 13 13 12 13 13 14 13 13 13 13 13 13 13 14 14 14 14 14 15
1 2 1 2 2 1 1 3 4 3 12 10 7 4 6 4 5 6 9 9 4 3 3 4 4 7 3 5 1 3 4 6 6 1 6 8 13 12 15 15 13 13 12 11 10 10 11 21 19 19 19 19 19 18 18 18 18 17 17 16 16 15 15 15 15 14 14 14 14 14 14 14 13 13 12 12 13 13 14 13 12 14 14 14 14 13 13 13 13 13 14 14 14 14 14 14 14
2 0 2 1 1 1 1 2 7 10 15 1 7 1 1 6 10 10 10 17 2 11 3 7 3 7 4 4 1 3 11 8 5 4 8 12 16 16 16 14 13 13 12 10 10 9 11 20 19 19 18 19 18 19 18 18 18 17 16 16 16 15 15 15 14 14 14 14 14 14 14 14 13 13 13 13 13 14 14 13 14 14 13 13 13 13 13 13 13 13 14 15 15 15 15 14 14
1 1 1 1 2 1 4 6 7 10 16 6 6 2 3 9 4 3 3 5 2 7 7 2 11 11 7 3 6 3 2 5 6 7 6 15 16 16 16 14 14 14 13 11 9 9 13 19 19 18 19 18 19 19 18 18 18 17 17 16 15 15 15 14 14 14 14 14 14 14 14 14 13 13 13 13 13 13 13 13 13 13 13 13 13 13 13 13 14 14 15 15 15 16 16 15 14
1 1 2 3 2 2 4 5 8 7 9 6 8 9 7 9 17 1 6 5 5 3 4 5 3 3 6 2 4 0 3 4 8 10 15 14 16 15 14 14 15 14 13 11 9 9 15 20 18 18 19 19 19 19 19 18 18 17 16 16 15 15 15 15 15 15 14 14 14 14 14 13 13 13 13 13 13 13 13 13 13 13 13 13 12 12 13 13 14 14 15 15 16 16 15 15 14
1 2 2 1 3 1 3 9 11 6 10 5 7 7 7 10 15 5 6 6 5 6 13 8 6 4 3 6 3 4 6 11 12 17 15 15 15 14 11 14 15 13 13 11 10 9 10 18 19 19 18 18 18 18 18 18 17 17 16 16 15 15 15 15 15 14 14 14 14 14 13 13 13 13 13 13 12 12 12 12 12 12 12 12 12 12 12 13 13 13 14 15 15 16 16 15 15
0 2 1 2 1 7 6 8 7 10 10 5 8 9 7 8 10 4 3 6 7 6 3 3 2 8 12 9 8 6 7 15 16 15 15 14 14 12 13 13 15 16 13 11 10 9 9 17 20 18 18 18 18 18 18 17 17 17 16 15 15 15 15 15 14 14 14 14 14 13 13 13 13 12 12 12 12 12 11 11 11 11 12 12 12 11 12 12 12 13 13 14 15 15 15 15 15
0 1 1 2 3 5 9 9 8 7 9 4 9 9 11 12 11 8 3 7 4 2 8 14 11 16 10 8 1 4 11 15 17 16 15 14 13 13 12 12 14 15 15 12 11 9 10 11 19 19 18 18 17 17 17 17 17 16 16 15 15 14 14 14 14 13 13 14 13 13 12 13 12 12 12 12 12 11 10 10 10 11 12 12 12 11 11 12 12 12 12 13 14 15 16 17 17
1 1 2 2 5 5 4 5 7 8 7 5 9 6 5 10 7 6 6 5 3 9 7 5 8 14 11 9 4 10 13 14 14 14 14 13 12 12 12 11 13 12 14 13 11 9 9 9 10 16 20 19 18 18 16 17 17 16 15 15 14 13 13 13 13 13 13 13 13 13 12 12 12 12 11 11 11 10 10 10 10 10 11 12 11 11 11 11 11 11 11 11 12 14 16 16 17
1 0 0 1 2 2 5 8 7 7 5 5 5 4 7 13 11 12 7 4 10 12 5 6 16 6 9 6 6 12 15 13 13 13 14 12 11 11 12 12 13 13 12 11 11 10 9 8 9 10 14 20 18 18 17 17 16 15 15 14 13 13 13 13 13 13 13 13 13 13 13 12 12 11 11 11 10 10 10 9 9 9 10 11 11 10 9 10 10 10 10 11 11 11 13 16 17
3 2 1 2 2 3 6 5 4 5 7 4 5 6 5 7 10 13 8 6 9 3 3 15 11 9 10 7 10 10 10 14 12 12 12 13 11 12 14 12 13 12 11 11 11 10 8 7 8 9 11 10 10 14 17 17 16 15 15 13 13 13 13 13 13 13 13 13 13 13 13 13 12 12 11 10 10 10 10 9 9 9 9 10 10 9 9 9 9 9 9 9 9 9 10 13 15
4 1 1 2 3 3 3 7 3 4 7 3 4 10 7 3 13 7 11 12 7 4 10 3 8 13 9 16 10 12 12 15 13 13 14 13 12 12 13 12 12 11 10 10 10 10 8 8 8 7 8 8 8 6 6 11 16 15 14 14 13 13 13 13 13 12 12 12 12 12 12 12 11 12 12 11 10 10 9 9 9 8 9 9 9 8 8 7 7 8 8 7 7 7 9 12 17
3 2 1 2 4 3 2 4 3 8 7 4 10 9 4 6 7 11 3 6 5 10 9 5 7 2 15 14 21 17 16 15 13 15 15 15 12 12 13 13 11 10 9 10 9 8 8 8 7 7 7 7 6 6 7 7 12 15 14 14 13 13 12 11 11 11 11 11 12 12 12 9 9 8 11 8 10 9 9 6 8 8 8 9 8 8 7 6 5 6 5 5 6 7 9 16 20
1 2 3 2 7 3 2 2 1 5 3 8 11 8 6 6 7 5 14 5 19 9 7 3 7 3 20 9 17 20 17 14 15 17 16 13 11 10 10 10 9 9 8 8 8 8 8 8 9 7 7 8 8 7 5 6 9 14 11 13 13 12 11 11 11 12 11 10 9 10 9 5 4 4 5 4 8 4 8 8 8 8 8 8 8 7 6 5 3 3 3 5 6 8 9 17 20
1 2 2 5 4 5 3 6 5 5 7 7 5 1 1 5 9 7 14 10 1 9 7 2 6 6 10 11 17 20 19 19 17 18 15 12 11 12 12 10 10 11 9 8 7 7 8 7 8 8 7 8 7 6 5 5 6 8 5 5 5 7 8 9 6 4 7 4 10 7 5 4 5 5 4 6 3 4 5 9 8 8 8 8 7 6 5 3 3 3 4 4 5 7 10 6 12
2 1 2 4 1 3 4 6 6 6 7 7 9 5 1 3 1 5 8 10 9 11 6 11 12 14 16 17 15 18 21 20 19 17 16 14 13 15 13 11 10 11 10 9 7 8 7 7 7 8 7 7 7 5 4 4 6 5 4 4 4 5 5 4 4 4 4 4 4 5 4 4 3 3 3 4 4 7 5 8 8 8 8 8 7 6 4 3 2 2 3 4 5 7 6 6 6
2 2 2 3 1 1 4 1 6 1 6 6 5 9 4 5 3 6 4 11 17 3 16 14 16 22 20 18 18 17 19 19 19 18 17 16 14 14 14 13 12 11 10 9 9 7 7 7 8 7 8 8 7 5 5 5 5 5 5 4 4 4 2 3 3 4 4 4 5 4 5 4 4 3 6 10 8 4 5 7 8 8 8 8 8 4 3 2 1 2 2 4 4 3 5 5 5
2 1 0 2 2 5 5 5 4 6 7 6 2 8 2 3 4 3 6 9 9 9 9 12 23 20 19 20 19 18 19 19 19 18 17 15 13 10 11 11 11 10 9 9 8 8 8 8 8 7 7 7 7 6 5 6 5 5 5 4 3 3 2 2 1 2 2 3 4 3 2 2 3 3 3 4 3 3 3 3 2 2 1 2 7 3 1 0 1 1 2 3 2 1 2 6 5
0 2 3 1 2 3 3 6 4 4 3 5 5 2 0 3 5 4 8 4 7 8 13 10 21 23 22 21 18 17 17 18 18 17 16 15 15 13 10 9 8 9 9 9 9 9 8 8 8 7 7 6 7 6 7 6 6 6 5 4 3 2 2 2 2 2 3 3 3 3 4 3 3 2 4 4 3 3 4 4 3 3 2 2 2 3 3 1 1 0 1 2 2 2 2 4 5
1 3 0 4 2 0 4 4 5 5 2 4 5 3 3 5 3 9 2 3 4 6 10 12 14 14 15 16 17 16 17 16 15 16 15 14 13 12 12 10 11 10 9 8 8 7 8 8 8 8 8 7 7 6 5 5 6 6 5 5 4 3 3 3 2 2 4 3 2 4 6 6 4 3 3 1 4 4 4 3 4 4 4 2 1 2 3 2 2 1 0 2 1 2 2 1 7
3 2 2 3 4 4 3 2 4 5 3 3 6 12 6 10 0 7 1 2 4 5 7 8 10 14 13 13 12 15 16 16 14 12 12 12 11 12 11 11 9 8 8 9 8 8 9 9 8 9 8 7 7 6 5 6 5 5 4 4 5 5 5 4 5 2 3 3 4 6 5 6 6 5 5 4 1 3 5 5 4 4 3 3 2 2 2 2 3 2 2 0 0 1 2 3 7
1 1 3 1 1 0 2 2 3 4 5 6 9 13 8 9 3 5 1 4 5 4 7 12 5 4 10 13 12 14 14 13 13 12 9 9 9 9 9 8 9 9 10 9 8 9 9 8 9 9 8 8 6 6 6 5 5 4 5 5 5 5 5 6 5 4 6 4 3 4 4 5 5 5 5 3 1 1 3 5 5 5 4 4 3 3 2 3 3 3 1 1 1 3 3 2 8
0 1 1 0 1 1 1 3 3 5 4 7 8 14 12 9 11 2 3 4 3 6 7 10 5 6 7 7 8 6 10 9 9 11 10 9 10 11 10 10 10 10 10 9 9 8 8 8 9 9 8 8 7 7 5 5 5 5 5 5 5 3 5 5 4 6 5 5 4 4 4 4 4 6 3 3 5 2 3 3 4 5 5 5 4 5 4 3 3 2 1 1 2 3 3 3 8
2 3 3 1 2 2 1 2 2 4 2 3 6 17 10 3 4 2 1 2 3 9 8 4 5 6 10 12 9 6 8 6 8 7 8 9 11 11 10 10 10 10 9 9 8 8 8 9 9 8 7 7 7 7 6 6 5 5 5 5 4 5 3 5 5 5 4 4 4 4 4 3 3 4 4 4 4 1 1 4 5 5 5 5 5 5 3 3 3 3 2 1 0 2 3 3 7
1 3 2 1 2 3 2 1 2 4 4 4 8 17 11 4 2 5 5 3 4 11 11 8 4 4 13 17 14 9 5 4 1 4 9 13 10 10 11 10 10 10 11 10 8 8 9 9 8 6 7 8 8 7 6 6 5 5 4 5 5 4 4 5 5 5 4 3 3 3 4 4 3 3 4 4 3 3 4 1 3 4 6 5 4 4 4 3 4 2 2 2 1 0 2 3 2
2 0 3 2 4 3 1 3 2 6 3 3 12 11 2 4 2 2 4 6 6 8 6 6 3 2 3 8 9 7 8 8 4 2 7 9 10 8 12 9 11 10 7 10 9 9 10 9 7 6 8 8 8 8 6 5 5 4 5 5 5 5 5 5 5 5 5 4 4 4 3 4 2 3 4 4 2 3 4 4 2 4 5 5 4 4 3 3 1 2 2 1 1 2 4 4 1
1 2 1 3 5 3 4 3 1 5 5 5 5 4 3 4 3 2 1 3 3 7 6 4 2 5 3 4 6 5 1 3 4 3 1 5 11 9 9 10 11 9 8 7 9 10 8 6 5 5 7 9 8 6 5 5 5 5 5 5 5 6 6 6 5 5 4 3 3 3 4 3 1 1 4 4 3 4 4 3 3 1 4 3 3 4 5 4 3 3 2 1 3 3 3 3 0
1 0 1 0 2 3 2 3 4 2 4 6 8 4 4 4 3 2 0 1 4 7 7 4 6 6 4 3 3 4 4 5 6 4 5 2 8 10 9 10 10 10 8 8 10 10 8 6 5 6 7 7 6 6 7 6 5 6 5 5 6 7 7 6 6 5 4 4 3 3 3 4 2 3 4 5 4 4 4 2 1 1 3 3 6 5 5 5 3 4 2 3 2 3 3 1 1
1 1 4 2 2 5 4 1 3 4 2 2 1 0 4 3 1 1 0 2 2 9 7 7 7 6 5 5 5 5 5 6 5 7 2 6 8 6 11 11 11 11 11 10 10 9 8 7 7 7 6 7 6 7 6 7 7 5 5 6 5 4 6 6 6 5 6 3 3 4 2 3 3 4 4 4 4 3 3 3 3 4 3 1 6 4 3 5 3 2 0 4 2 2 2 0 2
1 2 3 2 1 4 6 1 3 5 1 3 1 3 1 0 1 3 0 2 3 6 6 7 7 6 4 6 6 5 5 6 3 2 4 5 5 6 7 10 11 11 10 11 10 9 9 9 8 8 7 8 7 6 6 5 6 5 4 5 6 5 6 6 5 5 5 4 4 3 3 3 4 4 3 3 3 3 3 3 4 4 4 2 5 5 4 3 3 2 2 3 4 0 1 2 3
3 0 3 3 1 2 2 3 2 1 2 2 4 2 0 2 3 5 1 1 2 4 4 4 8 7 4 4 6 6 5 5 1 2 1 1 6 3 6 10 11 10 10 10 11 11 11 9 8 7 6 7 6 7 6 6 5 4 4 5 4 6 4 6 6 6 5 5 3 3 2 3 3 4 3 3 3 2 3 3 3 4 5 3 3 4 6 3 3 3 2 1 4 2 0 2 0
1 1 3 6 1 3 3 0 1 2 1 0 2 4 1 3 3 4 2 2 2 2 3 1 1 4 5 4 6 7 3 5 7 4 4 3 5 7 7 8 10 10 9 11 10 9 8 7 7 7 7 7 6 6 6 5 5 4 4 5 5 4 3 5 6 5 5 5 4 4 3 3 3 3 3 3 3 3 3 3 3 4 4 4 2 3 3 3 3 2 3 1 1 3 3 2 2
5 1 3 2 3 2 1 3 0 4 1 0 2 1 1 2 3 2 3 3 3 3 4 2 4 4 6 5 4 3 4 3 2 3 5 6 5 6 7 9 9 9 9 9 10 10 9 7 6 6 6 7 6 5 6 5 5 5 5 4 4 4 3 5 5 6 5 5 4 4 4 4 3 4 2 1 2 1 1 2 3 3 3 2 2 2 1 3 4 3 2 3 2 2 1 2 2
3 2 3 5 4 3 1 1 3 4 1 2 0 3 2 1 1 2 3 5 5 5 4 4 4 4 4 4 2 3 1 5 2 1 2 1 3 3 6 7 9 9 9 10 10 9 10 10 8 8 6 7 7 6 5 6 5 4 3 5 6 4 5 4 5 6 6 6 4 4 4 4 4 4 2 2 0 1 1 1 2 3 2 0 1 0 0 0 2 3 4 2 3 1 1 1 2
2 3 0 1 2 1 1 0 0 2 0 2 2 3 4 1 1 1 2 4 2 4 4 4 2 4 2 5 5 4 4 4 7 7 3 2 1 2 4 1 6 10 7 10 11 10 9 8 9 8 6 6 7 7 6 5 4 5 5 5 4 3 4 5 4 5 6 5 4 4 4 4 3 2 1 2 1 1 2 1 0 2 2 2 0 0 0 0 0 2 1 1 0 3 2 3 3
2 2 3 3 1 1 1 2 2 1 5 2 2 3 3 3 1 1 1 1 2 5 4 5 7 7 5 6 6 8 6 6 6 4 4 5 4 6 3 3 3 1 8 11 10 10 9 8 7 7 6 7 6 6 5 5 3 4 4 4 6 2 1 2 6 5 6 6 5 5 4 4 4 3 2 2 2 2 3 1 2 2 2 1 2 3 2 0 1 2 3 4 1 1 1 2 5
3 2 0 2 2 2 1 3 1 3 2 3 0 3 1 1 1 1 0 0 2 3 3 4 3 8 9 9 9 7 7 5 5 4 4 5 7 7 7 8 7 6 5 8 9 10 8 8 7 7 7 6 6 5 5 4 5 5 4 7 4 4 3 3 3 4 4 4 4 1 2 4 4 4 3 3 1 2 3 3 3 2 3 0 2 2 2 3 1 1 2 2 3 1 0 3 3
2 3 2 2 1 1 2 3 0 1 4 4 1 1 0 0 1 1 1 2 2 2 2 1 2 2 2 1 3 5 8 8 6 5 3 8 11 12 11 10 8 9 7 9 9 9 7 9 8 8 8 7 6 5 5 4 5 3 3 3 3 4 4 4 5 3 4 3 3 2 5 4 4 4 3 3 3 3 3 3 3 2 1 2 1 2 2 3 2 3 3 3 4 4 3 2 2
3 4 5 4 5 6 1 0 2 3 1 1 1 3 3 1 0 2 1 2 2 2 2 4 4 5 5 6 5 2 1 4 9 7 5 6 8 12 12 11 10 8 7 6 8 9 9 8 8 7 6 6 6 5 5 5 6 7 6 6 4 3 3 3 4 6 5 5 6 3 2 1 2 2 0 2 4 4 3 3 2 1 1 2 0 3 2 0 1 1 3 4 4 4 4 3 2
1 1 4 7 6 4 3 3 3 1 1 2 2 2 2 2 2 1 2 2 3 1 4 5 5 5 3 4 5 5 5 6 7 7 7 9 13 12 11 6 7 8 7 7 5 6 9 8 8 8 7 6 6 5 5 5 6 7 8 8 7 7 6 3 3 3 5 3 5 5 5 2 3 4 2 2 3 3 4 3 3 1 2 2 1 1 2 2 3 2 1 2 5 3 2 3 4
1 2 8 7 7 5 2 3 4 1 2 2 3 4 2 4 4 2 2 2 3 6 6 5 5 5 5 2 3 8 8 8 7 7 7 14 13 7 5 4 3 3 6 7 6 5 11 9 8 8 7 6 6 5 6 7 7 7 7 6 5 6 6 6 4 4 3 4 5 6 3 2 2 3 4 4 4 3 3 3 2 2 1 2 2 2 3 3 3 3 1 2 3 4 5 5 6
1 1 7 5 6 4 4 6 4 1 2 2 5 5 3 2 3 2 5 5 3 4 4 5 7 7 6 5 2 7 6 6 7 10 15 15 9 8 10 11 8 8 8 7 6 6 9 8 8 8 8 7 6 7 7 7 7 7 7 7 5 4 5 5 4 2 4 2 5 4 5 4 4 3 2 3 4 4 2 4 4 3 1 3 2 3 3 2 3 4 4 4 4 4 5 6 3
2 8 9 8 6 3 5 5 6 3 3 1 4 5 1 3 2 1 1 1 1 2 5 7 6 8 8 8 6 6 9 8 12 17 16 12 9 7 7 7 6 6 6 7 2 1 3 4 7 8 9 7 7 8 8 7 7 6 6 5 6 4 3 2 2 4 4 4 6 6 6 6 6 5 4 4 4 5 4 4 3 4 4 2 2 3 3 3 4 3 4 5 4 4 3 5 6
6 9 7 5 6 2 3 6 2 3 4 2 1 1 4 1 4 1 1 1 1 3 3 3 3 5 6 7 11 12 14 15 13 12 11 8 5 5 6 6 7 8 6 7 8 9 6 9 9 9 9 8 7 8 8 8 5 6 6 6 6 6 5 5 4 4 3 3 6 5 6 7 5 6 5 4 4 4 3 3 4 4 2 1 1 3 4 4 3 3 4 4 3 2 1 2 1
4 2 3 5 6 3 3 4 4 3 2 4 1 3 3 2 1 2 2 3 3 4 4 2 3 6 6 3 6 12 13 12 10 8 5 6 6 4 4 4 6 8 9 6 6 8 10 9 8 9 7 7 7 7 7 7 6 5 5 6 7 6 6 6 7 7 6 6 6 7 5 4 5 5 4 5 4 4 3 3 4 3 1 0 1 1 3 2 2 0 0 4 4 3 1 2 2
5 6 6 4 1 3 3 4 2 0 2 1 5 4 3 4 2 2 7 6 5 3 5 6 7 11 12 9 6 8 9 9 9 8 6 7 6 5 3 5 3 7 9 8 10 8 9 9 10 10 9 6 7 5 6 7 6 6 6 6 5 5 7 7 7 6 6 6 6 6 5 6 4 5 5 5 5 4 4 4 4 5 4 3 2 0 0 0 2 3 3 1 1 2 3 4 4
3 4 4 3 1 0 0 1 1 1 2 1 2 5 3 2 2 7 7 7 7 5 7 5 7 10 11 8 7 9 9 9 8 7 7 7 6 6 4 4 4 5 6 7 7 8 6 7 8 9 9 7 5 5 6 6 6 6 6 6 6 6 6 6 6 6 6 6 6 7 7 7 7 7 7 7 7 6 4 5 5 5 5 4 4 4 2 0 0 2 2 2 3 2 1 3 4
3 1 4 4 5 1 1 2 1 2 2 1 3 0 0 1 3 8 4 4 3 3 4 5 5 8 8 7 7 7 7 4 4 6 9 12 12 11 10 7 5 3 3 4 4 6 6 7 7 8 8 5 5 6 5 7 7 6 6 7 7 5 5 5 6 6 6 6 6 6 6 6 6 6 7 8 5 5 6 5 5 5 4 4 4 4 3 2 1 1 1 2 1 2 3 1 2
1 1 2 3 4 4 2 3 3 2 2 3 3 2 2 2 1 6 5 4 4 6 9 7 7 6 7 7 6 5 4 3 4 6 7 8 9 7 5 3 3 6 7 6 6 6 6 6 6 7 9 7 6 6 7 8 8 7 6 6 6 5 3 4 4 4 6 7 7 7 7 6 6 6 6 5 6 6 6 6 5 6 5 4 4 5 5 4 3 2 1 0 3 0 2 2 1
1 3 2 4 2 6 4 1 2 4 3 3 0 2 1 2 3 7 5 6 6 6 6 8 9 9 6 9 7 6 5 4 3 4 5 7 8 7 6 6 7 8 7 6 6 6 6 6 6 6 6 5 6 6 7 6 6 6 6 5 4 4 4 5 6 6 7 7 7 7 7 8 7 6 6 5 6 6 6 7 7 7 6 5 4 5 5 5 4 3 4 4 3 3 1 3 2
4 1 3 1 2 5 3 2 1 3 4 3 2 4 4 4 2 3 6 8 7 6 5 7 8 8 8 7 8 6 6 4 2 2 3 4 5 7 4 3 4 6 6 6 5 4 5 5 5 5 4 5 4 5 4 4 4 4 5 6 5 5 6 6 6 5 5 4 5 5 5 5 7 8 7 6 6 7 7 8 7 7 7 5 6 5 5 5 4 4 4 4 4 4 4 3 3
3 2 1 1 0 1 3 4 1 2 2 1 1 1 1 3 4 4 7 6 6 4 4 5 7 6 6 6 7 8 7 5 3 3 3 3 4 4 4 5 3 4 3 5 5 3 3 3 2 2 2 1 1 1 1 1 1 1 1 2 2 4 4 4 4 4 3 4 5 5 5 7 7 7 7 6 6 6 6 7 7 7 7 7 6 6 6 4 4 5 4 5 4 3 4 5 5
2 2 2 0 1 1 2 0 3 5 2 2 3 4 1 3 3 4 4 3 2 2 4 5 6 6 5 5 6 7 6 5 3 3 3 3 4 4 3 3 4 3 3 3 3 2 1 2 2 2 2 2 1 1 2 1 1 0 0 0 1 1 1 1 0 0 1 3 3 2 2 4 7 7 7 8 7 6 7 7 7 7 7 6 7 7 6 6 5 6 6 6 6 4 5 6 7
2 2 2 1 2 1 4 1 1 2 4 2 3 2 2 2 3 2 2 1 4 2 6 6 6 5 5 5 5 6 6 5 4 3 3 4 4 3 2 3 5 3 1 2 2 2 1 2 1 2 2 2 2 1 1 2 2 2 2 3 1 2 2 3 2 0 1 1 1 0 1 4 3 5 6 7 7 8 7 7 7 7 7 7 7 7 5 4 4 6 7 7 6 6 7 7 6
6 6 4 6 5 2 1 1 1 2 5 3 4 4 1 2 1 3 3 2 2 3 4 6 6 6 6 5 5 5 6 4 4 3 3 5 4 3 3 4 3 3 3 2 1 2 1 1 2 2 2 2 3 3 4 3 2 3 4 2 2 0 1 3 2 1 3 3 3 2 2 3 4 5 4 6 8 7 6 6 7 8 8 8 8 9 8 7 8 8 8 6 7 7 7 8 6
Wind_Direction
332 319 303 289 214 252 308 236 165 263 124 243 275 199 250 187 249 316 292 251 236 293 309 19 34 117 173 200 158 120 12 147 286 144 214 144 132 130 130 133 135 135 138 144 140 137 137 138 138 136 134 131 129 127 125 122 119 118 116 114 112 110 109 109 108 106 104 100 97 95 92 91 91 90 92 92 90 91 91 92 96 95 97 98 102 100 95 92 94 95 90 86 83 80 77 75 73
313 332 320 310 240 128 250 159 93 210 142 282 248 215 221 326 176 232 264 229 267 291 87 69 72 78 58 95 131 127 32 29 144 85 61 108 118 130 136 137 141 140 142 141 135 132 134 137 137 135 133 132 130 128 126 124 121 119 116 114 113 113 112 112 111 108 105 101 98 96 94 92 91 91 93 93 96 98 96 95 96 102 100 99 99 98 96 98 96 90 89 85 80 78 76 75 76
327 340 7 5 87 165 291 33 205 196 189 232 245 216 90 238 264 226 248 201 100 120 100 93 67 38 32 80 74 7 204 40 109 96 102 129 129 150 141 139 139 137 138 135 132 132 133 137 137 135 133 132 131 129 128 125 122 120 118 117 117 117 116 115 112 109 104 101 99 96 95 94 94 96 96 99 99 95 93 89 92 96 97 95 96 97 96 95 92 90 88 83 80 79 78 78 78
349 284 116 61 31 280 51 150 203 174 204 228 270 185 197 192 242 264 265 204 173 168 48 25 34 312 23 73 78 79 88 126 86 133 134 151 146 142 138 135 135 132 131 132 133 132 134 139 136 135 135 133 132 131 127 125 123 122 121 121 120 119 118 115 112 108 105 101 98 97 96 95 95 93 94 100 101 96 94 96 96 96 98 101 100 98 98 95 92 89 85 83 80 80 79 80 80
291 284 191 93 114 162 145 205 201 172 221 205 230 131 193 198 236 266 272 264 219 266 93 146 88 339 54 78 94 105 157 101 142 323 112 109 128 141 134 132 132 131 130 130 130 132 136 138 136 135 136 135 133 130 129 127 125 124 123 123 123 121 118 116 112 109 105 102 101 99 98 96 96 98 99 100 99 99 94 95 102 100 97 99 100 97 95 93 91 89 86 83 82 81 81 83 83
259 241 264 118 139 235 336 245 216 219 233 161 232 233 196 202 213 207 244 270 283 235 188 159 158 173 39 344 349 82 133 151 157 90 128 136 140 141 134 134 132 129 129 128 129 132 138 138 136 136 136 134 133 131 130 129 127 126 125 124 123 121 119 117 113 110 107 104 101 99 98 98 97 98 103 102 101 100 103 105 97 95 94 97 97 95 93 93 93 90 88 85 83 84 87 86 82
350 18 119 40 316 167 192 245 239 231 242 223 245 276 313 303 245 286 300 336 19 6 10 164 116 101 84 108 65 22 340 114 131 140 139 138 136 137 136 134 131 127 127 129 128 130 138 137 136 136 136 135 133 132 131 129 128 127 126 125 125 122 120 118 115 112 108 105 102 100 99 98 99 100 100 98 97 97 96 94 93 92 92 92 94 94 94 93 91 89 88 86 86 88 87 84 84
142 98 200 135 241 152 238 248 251 220 252 206 256 270 278 280 287 245 294 307 306 333 85 126 340 61 123 117 126 86 12 23 106 113 123 134 136 137 135 134 129 128 127 126 127 132 136 136 135 137 136 135 134 133 131 130 129 128 128 127 126 123 121 119 116 112 109 106 103 99 99 101 102 103 100 100 98 97 96 94 95 93 92 91 90 92 91 90 90 90 88 88 90 90 87 86 89
83 116 285 109 246 271 246 236 249 250 269 267 268 270 269 261 266 298 289 258 259 200 169 177 173 63 174 104 112 131 90 106 113 123 131 134 136 137 135 136 130 128 125 125 128 130 133 138 138 137 135 135 135 133 131 130 130 131 128 128 127 124 122 119 115 112 110 107 104 102 102 103 104 105 104 102 100 99 98 96 95 96 94 91 89 88 89 90 90 91 92 92 90 87 85 86 87
27 143 211 183 179 239 244 258 241 239 257 259 273 271 275 275 273 298 282 296 249 162 356 47 92 125 134 128 122 128 137 126 125 128 135 137 135 134 134 133 129 127 125 126 128 129 135 139 138 136 135 136 135 133 132 132 131 129 130 129 126 125 122 119 116 114 111 108 106 106 106 106 108 108 107 106 104 102 101 100 100 98 98 96 92 90 92 92 93 93 95 94 92 86 82 85 89
44 157 220 205 236 238 231 249 260 284 269 279 272 266 271 281 282 285 268 262 67 79 121 108 110 129 127 127 57 77 130 130 135 139 141 137 135 137 129 127 127 127 128 127 127 131 136 137 138 137 136 135 134 133 132 131 131 131 130 128 127 126 123 120 119 118 115 112 110 110 109 110 110 110 110 110 110 108 106 105 105 103 101 99 98 96 95 95 94 94 93 93 88 84 84 86 91
41 170 155 201 236 211 264 276 275 278 280 268 263 268 269 268 275 263 238 195 130 135 156 173 153 136 119 133 132 147 144 141 138 138 137 135 133 130 126 124 122 121 123 126 126 128 132 137 136 138 137 135 134 134 131 132 133 132 130 130 130 128 125 124 123 121 119 117 116 114 115 114 114 115 115 114 112 112 110 106 106 105 103 101 99 99 96 96 96 96 94 88 83 85 86 86 93
149 217 144 237 224 223 279 280 276 291 287 262 269 257 239 254 261 262 242 210 160 163 219 173 138 156 128 146 132 142 149 148 139 137 134 134 129 127 123 122 123 122 122 122 122 127 131 132 134 134 137 137 135 133 134 134 133 132 134 134 133 131 129 129 127 126 125 124 125 125 123 122 120 119 119 118 117 115 114 112 108 107 106 103 101 99 97 97 99 99 96 90 84 82 91 99 103
150 181 145 241 256 247 248 269 294 290 276 298 296 291 274 253 250 246 218 184 196 204 265 143 151 132 94 106 142 155 155 148 140 136 129 126 128 126 123 123 122 121 120 122 125 128 129 129 130 134 134 131 133 135 136 137 137 137 137 137 136 135 135 136 135 134 133 133 132 132 130 127 125 125 122 122 121 120 119 117 113 109 107 106 104 100 99 97 99 99 96 92 90 88 88 99 112
209 134 200 225 269 262 229 249 256 286 278 335 325 336 313 344 318 230 194 180 216 149 125 180 160 127 178 150 160 169 161 151 143 132 124 123 125 124 121 120 119 118 119 120 124 130 129 129 129 126 124 127 126 128 133 141 141 140 139 140 141 144 145 145 144 141 137 135 132 128 125 124 124 127 131 129 128 128 126 121 119 115 113 110 107 105 101 99 98 99 98 96 94 89 79 81 117
198 178 189 249 261 235 281 258 255 271 287 14 334 327 340 283 353 317 324 198 135 131 160 145 241 224 169 175 158 152 150 146 138 128 125 125 122 119 117 118 117 118 122 125 126 128 132 128 125 125 126 126 126 127 134 140 143 142 142 145 149 151 148 145 141 137 134 131 128 125 124 124 126 129 132 133 136 134 128 127 124 121 117 112 109 110 106 105 103 102 105 110 104 87 80 93 114
217 184 248 246 267 295 282 275 301 258 310 11 328 10 339 313 316 333 320 284 140 175 153 215 216 182 167 157 140 137 139 138 132 127 128 128 128 124 122 120 122 121 128 130 131 135 134 130 129 126 129 130 131 130 133 140 146 143 144 152 152 148 148 146 141 136 130 129 126 128 123 120 125 132 132 144 139 134 139 135 130 128 123 119 114 111 116 114 106 85 74 51 54 57 59 101 113
143 206 205 258 228 290 266 300 356 339 19 305 303 241 221 310 340 339 323 11 68 122 98 91 73 69 109 114 130 134 136 137 137 136 138 137 139 134 135 136 138 143 140 138 139 138 135 134 134 133 130 133 133 133 138 145 141 135 143 149 146 149 150 146 133 126 131 134 136 130 136 144 146 142 156 149 138 148 144 142 138 134 131 127 123 120 124 121 97 65 43 49 49 62 73 76 113
164 233 158 231 210 224 37 29 43 6 333 302 318 337 232 217 77 359 343 332 327 95 88 106 101 101 110 122 132 135 139 139 141 141 145 146 147 145 143 145 145 141 142 141 142 144 139 133 136 134 134 136 134 135 137 134 131 142 144 139 157 152 160 135 135 135 134 142 132 147 149 149 151 156 152 148 151 149 157 152 147 146 142 139 134 133 128 122 99 63 48 34 44 52 54 62 92
244 178 265 248 241 307 76 345 0 311 255 304 356 299 355 312 10 42 307 317 318 168 132 118 127 135 139 137 137 141 141 142 144 145 148 150 148 147 146 147 146 147 145 148 145 143 142 143 142 140 142 141 137 137 132 135 144 147 146 148 152 153 123 131 143 140 146 146 153 166 166 166 166 168 172 159 154 148 162 159 159 157 155 149 145 133 143 139 117 32 14 24 43 51 71 68 67
280 31 116 277 40 337 352 20 30 358 357 329 227 276 337 23 16 62 247 4 300 293 324 160 145 147 144 143 143 146 148 148 147 147 148 146 144 141 143 145 146 143 145 137 139 151 151 148 144 144 145 144 140 142 141 149 154 146 150 157 154 140 107 131 139 97 154 168 175 156 150 182 168 185 165 132 125 152 144 157 155 135 144 171 134 126 132 175 77 359 9 7 5 46 80 98 97
130 172 211 274 346 18 348 322 9 7 353 311 290 275 156 141 52 294 237 138 273 298 319 303 146 148 144 145 150 148 150 150 146 144 144 145 145 141 134 128 125 131 135 144 152 151 153 152 147 149 148 147 151 150 154 159 150 161 162 158 142 90 119 160 151 139 193 165 142 147 163 143 127 138 130 130 130 143 165 170 163 163 169 195 121 163 160 159 209 27 9 337 322 348 350 105 130
282 300 123 86 45 146 342 338 334 24 10 314 324 290 336 92 351 275 16 104 259 297 303 297 143 136 139 138 144 146 146 146 142 142 141 142 143 140 139 140 141 145 147 146 148 149 149 151 148 151 151 152 156 160 154 152 170 177 150 138 124 143 154 131 133 124 150 142 135 127 99 99 103 68 47 78 156 167 178 201 174 177 178 200 148 174 186 188 187 179 253 257 327 302 264 151 147
110 235 328 55 66 39 312 315 4 10 353 320 295 328 236 122 61 283 26 0 313 300 315 293 131 137 137 136 140 142 141 141 140 130 134 139 141 141 142 140 139 136 140 145 149 151 154 156 153 156 156 154 164 161 157 169 180 170 130 139 149 167 152 143 145 143 105 93 94 97 100 96 99 89 97 86 307 279 187 197 188 175 183 198 176 159 217 202 187 193 208 142 302 243 284 109 144
168 344 16 27 46 248 287 327 29 19 353 306 349 316 271 112 135 263 5 63 335 350 341 343 79 143 138 137 138 141 135 136 137 136 139 137 137 132 129 131 138 144 145 152 150 151 159 156 155 159 160 161 160 161 170 176 178 143 132 145 169 171 147 147 144 137 113 117 97 105 109 106 106 95 92 104 70 181 251 187 190 186 186 204 175 207 210 223 199 195 161 40 4 330 325 100 155
86 145 129 267 227 290 342 8 350 50 14 357 345 293 284 132 143 0 26 17 332 118 49 346 355 36 67 69 67 70 121 130 131 145 144 136 136 136 141 146 146 152 155 149 149 155 158 158 159 165 164 160 159 160 172 171 173 140 149 159 183 138 151 126 150 114 132 115 107 104 103 105 97 113 100 75 85 4 203 226 182 192 193 199 189 203 222 201 209 172 97 50 11 329 323 41 147
197 158 186 167 245 188 116 75 338 31 338 327 305 285 277 305 129 181 245 223 125 128 134 93 22 84 62 59 63 56 110 121 147 129 141 138 144 146 150 149 152 152 149 150 154 156 160 161 165 164 156 157 155 159 169 177 154 145 159 165 154 139 137 137 119 119 120 116 128 113 103 104 115 92 73 79 58 84 30 174 217 186 194 204 194 212 205 210 205 196 149 151 299 302 309 69 160
219 189 166 351 300 223 186 84 1 67 345 352 282 261 255 312 111 171 147 194 159 139 144 132 168 170 138 143 160 133 127 105 263 117 154 148 152 151 154 155 155 149 153 156 158 156 159 167 166 155 152 155 154 160 165 158 140 154 158 145 146 129 144 135 131 132 130 135 141 115 117 110 103 75 95 60 89 50 17 136 207 199 203 195 198 202 211 226 204 180 152 172 190 249 323 53 210
254 349 263 313 349 10 170 156 217 99 279 313 276 264 305 356 204 206 151 167 169 139 126 113 114 107 91 128 133 126 146 148 195 175 166 151 145 151 153 159 151 149 152 154 155 157 164 167 158 148 148 152 154 159 159 137 140 144 143 159 135 127 138 132 137 144 147 145 131 129 113 106 94 119 84 93 95 82 52 23 139 244 207 190 187 187 195 217 202 150 167 184 89 33 7 13 347
132 27 140 349 4 331 258 163 145 136 225 202 235 239 258 262 263 174 211 166 117 109 117 92 102 110 96 107 114 117 103 171 126 354 0 149 145 153 154 152 148 146 149 154 151 159 163 159 143 143 148 151 154 143 130 134 142 147 150 136 131 135 142 141 152 153 134 115 116 111 114 88 86 110 96 80 84 83 72 26 54 310 266 188 171 174 183 211 209 206 154 85 35 37 335 349 101
165 261 60 168 55 270 274 154 132 167 188 175 213 232 273 273 270 89 41 137 127 114 119 113 106 102 78 89 93 92 65 28 59 324 352 348 151 152 151 147 148 146 149 153 158 159 156 151 150 150 154 147 141 133 134 143 145 148 141 137 139 141 143 140 141 121 120 150 146 130 139 121 122 117 102 98 81 81 68 64 78 274 290 210 166 186 177 203 202 207 159 96 35 17 311 355 159
149 15 310 330 138 274 305 252 141 175 325 300 74 194 242 272 276 85 10 46 87 122 125 101 105 115 111 78 91 87 76 63 24 340 41 48 343 159 151 151 152 150 154 156 152 153 152 155 158 150 150 142 145 140 142 147 148 151 152 137 124 132 124 132 145 149 148 141 131 118 133 111 106 107 97 95 87 73 78 43 346 357 12 187 162 182 178 189 209 211 199 120 72 350 336 267 82
359 123 278 297 194 262 332 191 182 155 295 309 217 218 305 240 245 142 162 43 68 113 121 123 122 140 131 106 100 100 91 114 106 300 291 127 145 284 169 152 153 154 151 153 154 154 155 159 151 146 153 149 151 143 139 139 139 143 140 121 134 138 135 135 138 136 131 135 131 147 143 116 109 87 92 101 91 81 58 46 345 15 2 9 133 166 199 185 186 185 205 141 123 166 267 156 75
321 4 243 221 240 275 267 300 288 113 77 292 351 86 300 295 114 132 214 87 41 98 127 159 152 154 134 90 86 82 84 113 158 214 233 240 142 192 253 156 151 150 150 150 157 159 157 153 149 145 151 150 151 147 144 140 141 129 114 111 132 141 147 127 135 140 138 136 135 163 143 131 124 102 86 98 89 100 87 56 347 26 3 10 95 141 185 183 199 176 169 155 132 132 123 115 66
220 277 280 298 259 183 228 55 294 97 357 178 324 70 358 38 95 105 105 104 51 68 99 123 342 130 115 76 84 104 145 182 188 182 149 212 179 169 240 161 150 149 148 149 152 150 143 141 140 148 146 147 147 148 136 123 125 108 89 106 124 128 133 96 134 128 141 142 157 157 160 142 130 105 97 86 83 71 43 42 9 13 17 8 72 118 131 171 177 176 160 188 106 155 159 168 193
293 212 223 242 301 279 272 249 237 150 176 335 61 88 27 55 66 72 53 65 83 65 66 68 62 54 92 85 89 138 183 182 124 160 172 190 175 160 222 168 155 147 144 144 144 142 140 138 146 142 142 146 146 144 123 120 122 130 111 84 101 129 143 102 130 141 145 145 164 173 164 154 163 147 140 104 87 53 35 12 3 4 19 27 37 34 42 121 152 159 190 165 134 80 36 122 124
283 315 206 241 227 297 300 303 210 192 103 348 312 72 85 97 117 119 104 78 69 102 114 72 71 71 107 122 145 186 158 65 49 129 239 252 198 106 248 171 151 147 142 140 141 144 150 153 150 148 151 148 148 147 136 138 140 134 102 137 147 170 158 117 127 154 151 167 175 179 151 178 180 159 159 123 130 319 341 8 28 346 20 88 97 312 272 221 159 162 172 170 129 105 52 81 104
227 266 218 121 154 146 268 309 14 280 120 311 334 74 48 104 286 61 60 89 91 112 108 117 139 132 141 193 176 147 144 145 150 182 176 95 48 57 343 337 142 144 141 142 147 152 155 152 150 149 148 151 152 157 151 140 157 168 154 174 158 159 147 133 122 160 164 171 179 168 173 175 163 153 137 138 173 184 281 297 1 294 327 305 213 328 194 295 88 122 143 76 29 138 156 179 170
341 255 201 94 289 223 314 22 66 325 82 275 329 66 40 38 30 52 72 115 125 133 179 163 165 175 182 214 188 179 160 153 161 155 111 150 156 71 108 12 7 355 148 151 150 150 152 152 151 149 154 153 162 160 144 148 157 159 141 177 151 151 242 190 143 169 160 160 183 178 166 162 160 142 137 137 168 251 245 245 267 265 297 280 303 320 1 331 252 170 173 160 221 15 116 207 175
232 274 87 221 220 104 282 298 330 30 109 182 199 79 357 11 52 352 3 75 99 115 106 155 185 172 195 210 196 176 167 150 155 130 151 152 116 157 186 172 174 166 161 150 150 152 155 155 154 154 160 160 165 169 163 155 154 168 163 157 165 132 174 103 71 122 130 140 173 171 182 167 162 164 172 159 152 180 241 254 258 287 293 291 228 252 299 293 300 262 192 200 143 177 212 212 224
243 183 161 164 195 177 162 235 334 108 70 112 148 76 114 280 46 35 110 114 87 117 109 104 189 221 195 227 233 186 169 157 141 125 102 144 160 179 190 185 174 163 155 155 155 160 162 160 161 160 163 169 171 176 162 138 107 88 93 71 87 66 44 71 95 124 168 175 140 176 199 170 169 164 197 165 168 193 203 233 254 273 311 333 188 202 214 242 232 218 198 184 177 171 234 227 243
310 224 185 188 140 119 96 214 98 25 345 237 148 27 332 305 155 223 127 69 50 37 174 203 224 215 188 184 194 246 140 140 151 147 142 164 192 184 189 176 174 145 145 148 174 163 155 159 158 160 163 168 173 178 157 139 145 141 140 139 141 124 115 137 154 169 204 184 183 214 179 138 149 124 25 227 191 183 201 222 235 199 277 343 94 225 199 204 290 220 225 193 210 217 178 182 232
95 299 120 115 119 120 129 146 83 25 135 298 60 107 293 347 322 352 67 77 82 139 246 228 225 235 239 203 157 164 165 155 150 138 149 197 211 197 177 159 162 148 155 169 165 157 151 158 161 163 165 171 175 166 154 145 151 152 154 162 161 168 162 215 208 204 171 176 162 173 186 189 159 133 149 187 197 168 173 184 212 207 246 281 286 243 223 237 243 226 216 226 240 228 154 189 203
253 152 119 113 112 113 136 102 75 160 276 302 107 75 78 337 333 46 47 90 218 196 209 228 216 229 222 185 140 164 178 168 150 146 181 208 207 173 116 72 119 151 162 155 166 163 163 167 162 166 167 170 176 161 160 160 160 158 150 150 149 153 168 187 198 203 180 163 162 170 146 208 194 160 144 135 138 153 159 194 222 243 256 277 292 266 255 259 272 311 306 257 257 214 199 195 212
228 60 99 86 105 117 100 75 63 45 74 16 96 91 56 316 301 43 165 186 227 215 213 210 208 206 203 159 181 181 161 126 136 171 200 206 185 138 153 170 169 133 157 161 178 177 165 162 165 161 170 172 172 166 164 172 161 162 155 147 143 165 170 186 186 184 142 142 122 145 160 188 201 192 184 185 167 159 180 194 210 227 244 272 277 290 286 285 270 273 278 290 278 248 199 214 179
66 98 84 83 63 59 92 77 47 349 69 36 132 148 128 272 267 6 266 167 196 213 205 214 205 195 189 161 169 97 95 141 187 194 195 194 175 161 165 141 151 147 148 140 106 40 101 137 170 167 173 175 172 171 166 171 161 150 141 146 151 175 176 164 162 171 156 160 146 166 168 183 191 197 214 216 184 176 184 195 208 220 233 245 268 266 273 283 258 249 243 251 239 238 225 191 203
113 74 72 55 59 43 78 90 112 32 30 265 337 26 159 43 292 282 353 253 208 237 247 222 198 193 186 173 152 143 158 178 187 192 191 174 142 148 141 145 145 133 142 148 140 158 170 177 183 174 177 176 174 173 166 164 160 152 145 156 167 176 180 164 176 209 136 137 159 180 181 191 187 190 195 224 217 198 182 202 205 227 212 202 237 281 265 243 257 261 254 249 238 162 196 190 167
124 91 79 46 3 12 60 44 44 82 280 268 196 253 218 125 318 305 282 280 249 223 232 238 173 141 120 231 168 152 167 181 185 185 168 116 115 137 143 138 149 141 147 154 149 155 182 185 175 174 177 180 179 173 166 161 159 159 153 162 176 186 176 178 184 201 192 177 177 184 199 189 197 191 194 202 227 226 180 206 210 195 181 139 308 226 235 261 259 52 156 216 232 218 156 145 141
71 85 57 81 324 30 6 12 31 173 199 331 325 328 40 39 170 339 327 317 304 251 220 220 167 149 175 179 150 151 160 173 178 180 151 145 135 114 190 157 149 153 160 162 158 175 178 173 173 172 183 178 178 166 170 168 162 167 169 173 182 183 187 190 194 199 203 189 189 192 188 188 178 188 209 205 228 215 196 206 206 193 208 218 239 157 142 144 23 39 45 8 263 215 194 176 168
93 110 130 86 56 88 184 235 213 267 239 183 250 42 66 295 352 352 318 309 292 271 240 225 175 160 171 160 140 151 159 167 171 165 140 99 124 168 231 199 167 162 163 157 159 172 171 170 174 175 185 178 165 165 174 169 178 178 181 183 191 182 187 190 194 196 204 207 194 201 196 190 181 192 192 210 213 200 201 208 203 205 196 197 200 220 193 178 92 9 8 32 348 299 248 203 201
203 174 127 175 148 159 216 177 154 185 182 69 356 16 220 62 324 316 312 282 284 281 331 9 87 138 137 133 133 137 148 144 132 149 148 160 174 182 180 186 166 112 161 168 168 170 167 171 173 182 187 183 158 171 177 178 183 188 190 193 199 192 189 183 191 198 200 205 215 204 204 198 193 204 196 211 207 197 205 204 210 207 207 217 220 201 204 166 144 124 21 337 343 2 34 15 302
100 281 39 69 241 145 127 199 149 173 103 19 359 90 16 58 18 40 340 340 355 16 40 60 65 67 84 85 70 75 96 112 149 155 149 158 169 172 187 145 117 153 189 185 178 172 169 174 174 182 188 185 163 170 187 183 188 191 193 198 206 202 199 184 204 206 205 200 199 198 204 201 211 205 211 207 213 199 199 203 211 214 207 207 220 210 205 219 206 195 222 299 297 259 6 0 334
209 108 210 209 188 99 101 51 29 75 67 56 267 348 53 164 38 30 9 32 32 30 46 64 70 65 56 77 85 111 130 130 148 150 138 126 143 160 179 168 181 174 175 179 181 179 175 170 171 178 184 172 165 168 172 185 192 192 203 202 202 207 211 205 204 207 207 201 198 200 200 205 209 213 208 206 208 204 200 198 205 210 208 209 214 227 213 207 201 198 206 211 245 263 271 270 254
90 63 234 273 134 126 124 135 345 63 75 43 352 69 352 11 61 344 41 56 34 26 26 64 85 117 120 118 123 130 121 113 82 87 102 130 140 158 156 156 178 177 164 164 172 173 171 169 169 169 167 174 188 179 164 150 171 212 211 204 202 204 209 217 221 221 207 191 195 197 207 205 207 210 209 211 197 198 204 203 201 205 205 201 212 219 218 213 206 214 222 225 220 211 223 252 248
124 185 311 89 329 19 325 85 37 78 56 139 0 143 109 6 57 21 57 60 66 45 36 64 74 86 96 95 110 121 115 117 120 125 115 97 123 113 138 170 157 114 133 152 148 149 145 133 137 148 168 162 156 126 101 84 82 210 251 261 244 215 200 213 226 241 239 211 202 195 193 210 211 208 211 216 215 194 197 202 201 203 197 205 208 217 218 212 201 217 229 230 241 212 214 243 256
305 47 35 83 89 146 73 188 158 110 130 106 30 24 27 351 16 20 56 11 2 14 47 58 78 94 99 106 116 124 122 128 138 117 120 128 103 112 148 159 118 117 117 115 132 112 94 55 75 92 99 111 109 127 138 124 102 104 283 137 142 151 189 175 64 57 299 278 294 300 275 219 211 206 209 208 213 202 188 192 199 197 197 204 208 219 211 210 200 212 222 228 239 223 227 233 247
282 26 328 8 7 179 114 36 80 143 151 133 144 49 339 314 347 354 65 354 352 7 66 63 71 81 91 103 118 121 123 125 120 116 100 85 88 109 138 110 110 113 116 102 111 141 140 112 99 139 136 116 123 137 106 114 144 151 174 230 74 2 287 222 211 96 55 359 336 112 162 259 290 251 211 202 207 211 196 190 189 194 197 200 210 219 215 210 211 225 227 224 226 216 221 233 233
171 162 195 169 142 107 70 311 343 86 101 161 122 116 291 279 32 321 315 338 339 9 48 70 70 72 79 84 91 108 117 117 111 102 93 87 87 79 49 46 67 93 118 130 137 111 88 92 113 116 104 131 165 161 144 153 159 182 196 196 130 155 315 340 316 197 213 220 234 241 213 230 220 233 254 233 209 210 208 190 184 193 198 201 205 209 207 199 211 216 225 223 224 216 221 228 223